Погода Большие Уки

Погода Большие Уки : погода сейчас, прогноз погоды и архив. Всё, что Вы хотите узнать о погоде Большие Уки!

Хотите узнать прогноз погоды Большие Уки? Тогда Вам сюда: Погода Большие Уки

Поиск расширенной информации на нашем сайте:

Другие новости

Новости СМИ2

Главная страница сайта

Новости сайта

03.07.2017

Напоминаем, что на нашем специализированном сайте Метеоцентр.Азия вы можете получить высокодетализированные автоматические прогнозы погоды по пунктам России, СНГ и мира в авиационном формате (включающие направление и скорость ветра, видимость, явления погоды, количество и форму облачности, нижнюю и верхнюю границу облачности).

Рекомендуем: форум отзывов о скидках купонаторов Москвы

Погода Большие Уки - сегодня

Время (UTC), дата Ветер
(°,м/с) 
Видим.   Явления Облачность Т
(°С)
Тd
(°С)
f(%) Тe
(°С)
Pmin
(гПа)
dP
(гПа)
Po
(мм)
O2
(г/м3)
Тmin Tmax R s Состояние
почвы
12 19.07.18 020 (С) 20000 м    10/3 600 м средняя, верхняя 
[Cu med, cong|Ac trans|Ci fib]
+26.9 +17.4 56 +40  1012.9  -0.1  752  272           
15 19.07.18 020 (С) 20000 м  {гроза}  10/1 600 м средняя, верхняя 
[Sc|Ac trans|Ci fib]
+23.5 +17.4 69 +37  1013.5  0.5  753  275    +28.3       
18 19.07.18 060 (СВ) 10 км  {гроза}  10/5 600 м средняя, верхняя 
[Sc|Ac trans|Ci fib]
+20.7 +15.9 74 +31  1014  0.3  753  279           
21 19.07.18 060 (СВ) 10 км    10/3 600 м средняя, верхняя 
[Sc|Ac trans|Ci fib]
+18.7 +13 69 +25  1014.2  0.2  753  281           
00 20.07.18 070 (В) 20000 м    10/3 600 м средняя, верхняя 
[Sc|Ac trans|Ci fib]
+16.9 +13 78 +23  1015.6  1.2  754  284           
06 20.07.18 030 (СВ) 20000 м    10/4 1000 м верхняя 
[Cu med, cong|Ci]
+23.4 +13.5 54 +29  1015.3  0.2  754  277           
09 20.07.18 030 (СВ) 20000 м    10/4 1000 м верхняя 
[Cu med, cong|Ci]
+23.1 +13.1 53 +29  1015.3  754  278           
12 20.07.18 040 (СВ) 20000 м    10/10 1000 м 
[Sc]
+21.9 +13.6 59 +28  1015.5  0.2  754  279           
15 20.07.18 050 (СВ) 20000 м    10/3 1000 м средняя, верхняя 
[Sc|Ac trans|Ci fib]
+19.9 +12 60 +25  1015.8  0.2  754  281    +24.7       
18 20.07.18 030 (СВ) 10 км    10/8 600 м средняя, верхняя 
[Sc|Ac trans|Ci fib]
+15.8 +11.2 74 +20  1016.6  0.6  755  285           
21 20.07.18 040 (СВ) 10 км    10/10 600 м 
[Sc]
+15.1 +10.1 72 +17  1016.6  755  286           
00 21.07.18 030 (СВ) 20000 м    ?/? 1000 
[Sc|Ac As]
+14.1 +9.4 73 +15  1017.1  0.5  755  288           
06 21.07.18 010 (С) 5{10}  20000 м    6/4 600 м средняя, верхняя 
[Cu med, cong|Ac trans|Ci fib]
+18.5 +5.4 42 +19  1017.2  0.1  755  284           
15 21.07.18 030 (СВ) 2{11}  20000 м    4/3 600 м средняя, верхняя 
[Sc|Ac trans|Ci fib]
+15.3 +4.7 49 +16  1017.4  0.1  755  287    +20.5       
18 21.07.18 010 (С) 10 км    5/0 средняя 
[Ac trans]
+11.1 +5 66 +11  1017.7  0.1  755  292           
21 21.07.18 020 (С) 10 км    1/0 верхняя 
[Ci fib]
+8.5 +4.4 75 +9  1017.5  -0.2  755  294           
00 22.07.18 020 (С) 20000 м    ясно 
+6.7 +4.1 83 +7  1017.5  -0.1  755  296           
03 22.07.18 010 (С) 20000 м    1/0 верхняя 
[Cc]
+13.1 +4.9 57 +13  1016.4  -0.9  754  289  +6.3        сухая 
06 22.07.18 350 (С) 4{11}  20000 м    10/4 600 м кучево-дожд., средняя, верхняя 
[Cb cap|Ac trans|Ci fib]
+15.4 +5.9 53 +15  1015.4  -0.9  754  287           
09 22.07.18 050 (СВ) 2{11}  20000 м    10/10 600 м 
[Sc]
+16.8 +7.2 53 +18  1015  -0.4  753  285           
12 22.07.18 тихо ()   20000 м  в посл. час ливневой дождь  10/3 600 м кучево-дожд., средняя, верхняя 
[Cb cap|Ac trans|Ci fib]
+16.2 +12.2 77 +20  1013.8  -1.1  753  284           
18 22.07.18 010 (С) 10 км    10/10 600 м 
[Sc]
+14.3 +5.9 57 +15  1012.7  -0.6  752  287           
21 22.07.18 010 (С) 10 км    10/10 600 м 
[Sc]
+12.5 +5.4 62 +12  1011.5  -1.2  751  288           
00 23.07.18 020 (С) 20000 м    10/0 средняя 
[Ac As]
+12 +6.3 68 +12  1010.1  -1.4  750  288           
06 23.07.18 010 (С) 9000 м  слаб. ливневой дождь  10/10 600 м кучево-дожд. 
[Cb cap]
+12.7 +9.8 82 +14  1006.7  -2  747  286           
Время (UTC), дата Ветер
(°,м/с) 
Видим.   Явления Облачность Т
(°С)
Тd
(°С)
f(%) Тe
(°С)
Pmin
(гПа)
dP
(гПа)
Po
(мм)
O2
(г/м3)
Тmin Tmax R s Состояние
почвы

Для получения пояснительной информации подведите курсор к названию столбца.

ПОГОДА Большие Уки - архив

Всё, что Вы хотите узнать о погоде Большие Уки - удобно и подробно!

Выберите нужную дату (начиная с 1 января 2015* года) и нажмите кнопку "Найти".
Будут отображены архивные сводки погоды по пункту Большие Уки, начиная с указанной даты.


Отображать данные в формате CSV (для использования в таблицах Excel)


Внимание! Наш архив погоды предназначен исключительно для личного некоммерческого использования в познавательных целях. Если Вам необходимы официальные справки о состоянии погоды (для производственных, юридических, коммерческих и т.п. целей), обращайтесь в органы Росгидромета.

*Примечание: данная дата относится к архиву по метеостанциям СССР (Россия, СНГ, Балтия).
Архив по метеостанциям Зарубежной Европы и Азии (кроме Китая) хранится 10 дней, по другим регионам земного шара (Китай, Африка, Америка, Австралия, Океания) - 1 день.

Большие Уки - район местоположения метеостанции


Название, широта, долгота, высота метеостанции:
Большие Уки 56.9°ш. 72.7°д. 87 м над ур. моря [Российская Федерация]

Дополнительная информация

В oтличие oт бoльшинства пoгoдных сайтoв мы публикуем пoдрoбную метеoинфoрмацию в детальнoм прoфессиoнальнoм фoрмате.

Характеристики температуры и влажнoсти вoздуха измеряются на высoте 2 м в тени вдали oт зданий и деревьев.
Скoрoсть ветра измеряется на высoте 10 м (на урoвне рoста челoвека скoрoсть ветра ниже в 1.5-2 раза). Если метеoстанция нахoдится в гoрoде или в лесу, тo скoрoсть ветра занижена на 2-4 м/с пo сравнению с oткрытым местoм. Скoрoсть ветра над акватoриями крупных рек и oзёр, а также на вершинах хoлмoв на 2-5 м/с выше, чем в oбычных услoвиях.
Атмoсфернoе давление в разных тoчках местнoсти мoжет значительнo oтличаться oт давления на метеoстанции, в зависимoсти oт услoвий рельефа (при пoдъёме на 10 м давление пoнижается примернo на 1 мм рт.ст.).